Weather History for Providence, RI

Change the Weather History Date:

Tuesday, June 4, 2013

  Actual Average Record
Temperature  
Mean Temperature 64 °F 64 °F  
Max Temperature 73 °F 74 °F 96 °F (1925)
Min Temperature 54 °F 55 °F 43 °F (1915)
Degree Days  
Heating Degree Days 1 3  
Month to date heating degree days 1 12  
Since 1 June heating degree days 1 12  
Since 1 July heating degree days 5295 5587  
Cooling Degree Days 0 2  
Month to date cooling degree days 26 8  
Year to date cooling degree days 70 34  
Since 1 June cooling degree days 26 8  
Growing Degree Days 14 (Base 50)    
Moisture  
Dew Point 42 °F    
Average Humidity 54    
Maximum Humidity 72    
Minimum Humidity 35    
Precipitation  
Precipitation 0.00 in 0.14 in 1.58 in (2007)
Month to date precipitation 0.78 0.57  
Year to date precipitation 15.38 20.64  
Snow  
Snow 0.00 in 0.00 in 0.00 in (2002)
Month to date snowfall 0.0 0.0  
Since 1 June snowfall 0.0 0.0  
Since 1 July snowfall 46.3 33.8  
Snow Depth 0.00 in    
Sea Level Pressure  
Sea Level Pressure 29.95 in    
Wind  
Wind Speed 10 mph (WNW)    
Max Wind Speed 20 mph    
Max Gust Speed 25 mph    
Visibility 10 miles    
Events      
T = Trace of Precipitation, MM = Missing Value Source: NWS Daily Summary

Daily Weather History Graph

Daily Weather History Graph

Search for Another Location

Airport:

Trip Planner

Search our weather history database for the weather conditions in past years. The results will help you decide how hot, cold, wet, or windy it might be!

Date:

Astronomy

Jun. 04, 2013 Rise Set
Actual Time 5:12 AM EDT 8:16 PM EDT
Civil Twilight 4:38 AM EDT 8:49 PM EDT
Nautical Twilight 3:55 AM EDT 9:32 PM EDT
Astronomical Twilight 3:05 AM EDT 10:23 PM EDT
Moon 2:43 AM EDT (6/4) 4:40 PM EDT (6/4)
Length of Visible Light 16h 11m
Length of Day
15h 03m
Waning Crescent, 14% of the Moon is Illuminated
Jun 4
Waning Crescent
Jun 8
New
Jun 16
First Quarter
Jun 23
Full
Jun 30
Last Quarter

Hourly Weather History & Observations

Time (EDT) Temp. Dew Point Humidity Pressure Visibility Wind Dir Wind Speed Gust Speed Precip Events Conditions
12:51 AM 64.0 °F 46.9 °F 54% 29.84 in 10.0 mi NW 17.3 mph 21.9 mph N/A   Mostly Cloudy
1:51 AM 61.0 °F 37.0 °F 41% 29.87 in 10.0 mi WNW 11.5 mph 20.7 mph N/A   Partly Cloudy
3:51 AM 57.9 °F 35.1 °F 42% 29.88 in 10.0 mi NW 16.1 mph 24.2 mph N/A   Overcast
4:51 AM 55.0 °F 36.0 °F 49% 29.89 in 10.0 mi NNW 6.9 mph 16.1 mph N/A   Clear
5:51 AM 54.0 °F 37.9 °F 55% 29.91 in 10.0 mi WNW 6.9 mph - N/A   Scattered Clouds
6:51 AM 55.9 °F 39.9 °F 55% 29.92 in 10.0 mi West 5.8 mph - N/A   Scattered Clouds
7:51 AM 59.0 °F 39.0 °F 48% 29.93 in 10.0 mi NW 12.7 mph 19.6 mph N/A   Scattered Clouds
8:51 AM 62.1 °F 41.0 °F 46% 29.94 in 10.0 mi NW 13.8 mph 19.6 mph N/A   Partly Cloudy
9:51 AM 64.9 °F 42.1 °F 43% 29.93 in 10.0 mi NW 12.7 mph 20.7 mph N/A   Clear
10:51 AM 66.9 °F 41.0 °F 39% 29.94 in 10.0 mi NW 13.8 mph 23.0 mph N/A   Clear
11:51 AM 68.0 °F 43.0 °F 40% 29.94 in 10.0 mi NW 11.5 mph 17.3 mph N/A   Partly Cloudy
12:51 PM 68.0 °F 41.0 °F 37% 29.95 in 10.0 mi WNW 11.5 mph 17.3 mph N/A   Partly Cloudy
1:51 PM 71.1 °F 43.0 °F 36% 29.95 in 10.0 mi NW 13.8 mph 21.9 mph N/A   Scattered Clouds
2:51 PM 70.0 °F 41.0 °F 35% 29.96 in 10.0 mi NNW 17.3 mph 25.3 mph N/A   Scattered Clouds
3:51 PM 71.1 °F 43.0 °F 36% 29.96 in 10.0 mi NW 8.1 mph 20.7 mph N/A   Scattered Clouds
4:51 PM 71.1 °F 43.0 °F 36% 29.96 in 10.0 mi NW 13.8 mph 21.9 mph N/A   Partly Cloudy
5:51 PM 71.1 °F 42.1 °F 35% 29.96 in 10.0 mi NW 13.8 mph 18.4 mph N/A   Partly Cloudy
6:51 PM 70.0 °F 43.0 °F 38% 29.98 in 10.0 mi WNW 6.9 mph - N/A   Scattered Clouds
7:51 PM 68.0 °F 45.0 °F 43% 30.00 in 10.0 mi West 5.8 mph - N/A   Partly Cloudy
8:51 PM 64.9 °F 46.0 °F 50% 30.02 in 10.0 mi West 4.6 mph - N/A   Partly Cloudy
9:51 PM 62.1 °F 48.0 °F 60% 30.05 in 10.0 mi West 5.8 mph - N/A   Clear
10:51 PM 61.0 °F 48.0 °F 62% 30.07 in 10.0 mi Calm Calm - N/A   Clear
11:51 PM 57.0 °F 48.9 °F 74% 30.08 in 10.0 mi West 3.5 mph - N/A   Clear